Weather History for Fort Yukon, AK

Change the Weather History Date:

Wednesday, November 14, 2012

  Actual Average Record
Temperature  
Mean Temperature -17 °F -  
Max Temperature -2 °F 1 °F 33 °F (2013)
Min Temperature -32 °F -7 °F -32 °F (2012)
Degree Days  
Heating Degree Days 82    
Moisture  
Dew Point -20 °F    
Average Humidity 60    
Maximum Humidity 100    
Minimum Humidity 29    
Precipitation  
Precipitation 0.00 in - - ()
Sea Level Pressure  
Sea Level Pressure 29.89 in    
Wind  
Wind Speed 2 mph (NE)    
Max Wind Speed 17 mph    
Max Gust Speed 22 mph    
Visibility 10 miles    
Events      
Averages and records for this station are not official NWS values.
T = Trace of Precipitation, MM = Missing Value Source: NWS Daily Summary

Daily Weather History Graph

Daily Weather History Graph

Search for Another Location

Airport:

Trip Planner

Search our weather history database for the weather conditions in past years. The results will help you decide how hot, cold, wet, or windy it might be!

Date:

Astronomy

Nov. 14, 2012 Rise Set
Actual Time 9:33 AM AKST 3:16 PM AKST
Civil Twilight 8:23 AM AKST 4:26 PM AKST
Nautical Twilight 7:16 AM AKST 5:34 PM AKST
Astronomical Twilight 6:14 AM AKST 6:35 PM AKST
Moon 11:19 AM AKST (11/14) 3:26 PM AKST (11/14)
Length of Visible Light 8h 02m
Length of Day
5h 42m
New Moon, 1% of the Moon is Illuminated
Nov 14
New Moon
Nov 20
First Quarter
Nov 28
Full
Dec 6
Last Quarter
Dec 12
New

Hourly Weather History & Observations

Time (AKST) Temp. Windchill Dew Point Humidity Pressure Visibility Wind Dir Wind Speed Gust Speed Precip Events Conditions
12:16 AM -29.2 °F - - N/A% 29.90 in 10.0 mi Calm Calm - N/A   Clear
12:36 AM -29.2 °F - - N/A% 29.90 in 10.0 mi Calm Calm - N/A   Clear
12:56 AM -29.2 °F - - N/A% 29.90 in 10.0 mi Calm Calm - N/A   Clear
1:16 AM -29.2 °F - - N/A% 29.90 in 10.0 mi Calm Calm - N/A   Clear
1:36 AM -29.2 °F - - N/A% 29.89 in 10.0 mi Calm Calm - N/A   Clear
1:56 AM -29.2 °F - - N/A% 29.89 in 10.0 mi Calm Calm - N/A   Clear
2:16 AM -27.4 °F - - N/A% 29.88 in 10.0 mi Calm Calm - N/A   Clear
2:36 AM -29.2 °F - - N/A% 29.89 in 10.0 mi Calm Calm - N/A   Clear
2:56 AM -29.2 °F - - N/A% 29.88 in 10.0 mi Calm Calm - N/A   Clear
3:16 AM -29.2 °F - - N/A% 29.88 in 10.0 mi Calm Calm - N/A   Clear
3:36 AM -29.2 °F - - N/A% 29.88 in 10.0 mi Calm Calm - N/A   Clear
3:56 AM -27.4 °F - - N/A% 29.88 in 10.0 mi Calm Calm - N/A   Clear
4:16 AM -29.2 °F - - N/A% 29.88 in 10.0 mi Calm Calm - N/A   Clear
4:36 AM -29.2 °F - - N/A% 29.88 in 10.0 mi Calm Calm - N/A   Clear
4:56 AM -29.2 °F - - N/A% 29.88 in 10.0 mi Calm Calm - N/A   Clear
5:16 AM -29.2 °F - - N/A% 29.88 in 10.0 mi Calm Calm - N/A   Clear
5:36 AM -32.8 °F - - N/A% 29.87 in 8.0 mi Calm Calm - N/A   Clear
5:56 AM -31.0 °F - - N/A% 29.87 in 10.0 mi Calm Calm - N/A   Clear
6:16 AM -29.2 °F - -29.2 °F 100% 29.87 in 10.0 mi Calm Calm - N/A   Clear
6:36 AM -31.0 °F - - N/A% 29.87 in 10.0 mi Calm Calm - N/A   Clear
6:56 AM -31.0 °F - - N/A% 29.87 in 10.0 mi Calm Calm - N/A   Clear
7:16 AM -29.2 °F - - N/A% 29.88 in 10.0 mi Calm Calm - N/A   Partly Cloudy
7:36 AM -29.2 °F - - N/A% 29.88 in 10.0 mi Calm Calm - N/A   Partly Cloudy
7:56 AM -29.2 °F - - N/A% 29.88 in 10.0 mi Calm Calm - N/A   Clear
8:16 AM -29.2 °F - - N/A% 29.88 in 10.0 mi Calm Calm - N/A   Clear
8:36 AM -29.2 °F - - N/A% 29.89 in 10.0 mi Calm Calm - N/A   Partly Cloudy
8:56 AM -29.2 °F - - N/A% 29.89 in 10.0 mi Calm Calm - N/A   Partly Cloudy
9:16 AM -29.2 °F - - N/A% 29.89 in 10.0 mi Calm Calm - N/A   Scattered Clouds
9:36 AM -25.6 °F - - N/A% 29.88 in 10.0 mi Calm Calm - N/A   Scattered Clouds
9:56 AM -25.6 °F - - N/A% 29.88 in 10.0 mi Calm Calm - N/A   Scattered Clouds
10:16 AM -23.8 °F - - N/A% 29.89 in 10.0 mi Calm Calm - N/A   Scattered Clouds
10:36 AM -23.8 °F - - N/A% 29.89 in 10.0 mi Calm Calm - N/A   Scattered Clouds
11:16 AM -20.2 °F -30.9 °F - N/A% 29.89 in 10.0 mi NNE 3.5 mph - N/A   Scattered Clouds
11:36 AM -18.4 °F - - N/A% 29.89 in 10.0 mi Calm Calm - N/A   Scattered Clouds
11:56 AM -16.6 °F -26.8 °F - N/A% 29.88 in 10.0 mi ENE 3.5 mph - N/A   Scattered Clouds
12:16 PM -16.6 °F - - N/A% 29.88 in 10.0 mi Calm Calm - N/A   Scattered Clouds
12:36 PM -14.8 °F - -27.4 °F 53% 29.89 in 10.0 mi Calm Calm - N/A   Scattered Clouds
1:16 PM -14.8 °F - -25.6 °F 58% 29.89 in 10.0 mi Calm Calm - N/A   Scattered Clouds
1:36 PM -14.8 °F - -23.8 °F 64% 29.89 in 10.0 mi Calm Calm - N/A   Scattered Clouds
1:56 PM -14.8 °F - -23.8 °F 64% 29.89 in 10.0 mi Calm Calm - N/A   Scattered Clouds
2:16 PM -16.6 °F - -25.6 °F 64% 29.89 in 10.0 mi Calm Calm - N/A   Scattered Clouds
2:36 PM -16.6 °F - -20.2 °F 84% 29.90 in 10.0 mi Calm Calm - N/A   Scattered Clouds
2:56 PM -14.8 °F - - N/A% 29.89 in 10.0 mi Calm Calm - N/A   Scattered Clouds
3:16 PM -16.6 °F - -16.6 °F 100% 29.88 in 10.0 mi Calm Calm - N/A   Scattered Clouds
3:36 PM -16.6 °F - - N/A% 29.88 in 10.0 mi Calm Calm - N/A   Scattered Clouds
3:56 PM -16.6 °F - -16.6 °F 100% 29.88 in 10.0 mi Calm Calm - N/A   Scattered Clouds
4:16 PM -16.6 °F - - N/A% 29.88 in 10.0 mi Calm Calm - N/A   Clear
4:36 PM -14.8 °F - - N/A% 29.87 in 10.0 mi Calm Calm - N/A   Clear
4:56 PM -11.2 °F -20.6 °F - N/A% 29.87 in 10.0 mi NE 3.5 mph - N/A   Clear
5:16 PM -5.8 °F -19.9 °F -27.4 °F 35% 29.88 in 10.0 mi NE 6.9 mph - N/A   Clear
5:36 PM -5.8 °F -21.2 °F -23.8 °F 42% 29.88 in 10.0 mi NE 8.1 mph - N/A   Clear
5:56 PM -5.8 °F -19.9 °F -16.6 °F 60% 29.88 in 10.0 mi NE 6.9 mph - N/A   Clear
6:16 PM -5.8 °F -19.9 °F -14.8 °F 65% 29.89 in 10.0 mi NE 6.9 mph - N/A   Clear
6:36 PM -5.8 °F -19.9 °F -5.8 °F 100% 29.89 in 10.0 mi NE 6.9 mph - N/A   Clear
6:56 PM -5.8 °F -22.4 °F - N/A% 29.89 in 10.0 mi NE 9.2 mph - N/A   Clear
7:16 PM -5.8 °F -22.4 °F -27.4 °F 35% 29.90 in 10.0 mi NE 9.2 mph - N/A   Clear
7:36 PM -4.0 °F -20.2 °F -29.2 °F 29% 29.90 in 10.0 mi NE 9.2 mph - N/A   Clear
7:56 PM -4.0 °F -22.1 °F -23.8 °F 38% 29.90 in 10.0 mi NE 11.5 mph - N/A   Clear
8:16 PM -4.0 °F -22.1 °F -18.4 °F 50% 29.91 in 10.0 mi NE 11.5 mph - N/A   Clear
8:36 PM -4.0 °F -21.2 °F -11.2 °F 71% 29.91 in 10.0 mi ENE 10.4 mph - N/A   Clear
8:56 PM -2.2 °F -19.9 °F -9.4 °F 71% 29.92 in 10.0 mi ENE 11.5 mph 16.1 mph N/A   Clear
9:16 PM -2.2 °F -19.9 °F - N/A% 29.92 in 10.0 mi ENE 11.5 mph 17.3 mph N/A   Clear
9:36 PM -2.2 °F -21.5 °F -23.8 °F 35% 29.93 in 10.0 mi ENE 13.8 mph 19.6 mph N/A   Clear
9:56 PM -2.2 °F -18.9 °F -25.6 °F 32% 29.93 in 10.0 mi ENE 10.4 mph - N/A   Clear
10:16 PM -4.0 °F -23.0 °F -25.6 °F 35% 29.94 in 10.0 mi NE 12.7 mph 17.3 mph N/A   Clear
10:36 PM -4.0 °F -23.7 °F -18.4 °F 50% 29.94 in 10.0 mi NE 13.8 mph - N/A   Clear
10:56 PM -2.2 °F -22.2 °F -11.2 °F 66% 29.94 in 10.0 mi NE 15.0 mph 19.6 mph N/A   Clear
11:16 PM -2.2 °F -22.2 °F -14.8 °F 55% 29.95 in 10.0 mi NE 15.0 mph 19.6 mph N/A   Clear
11:36 PM -4.0 °F -23.7 °F - N/A% 29.95 in 10.0 mi NE 13.8 mph 19.6 mph N/A   Clear
11:56 PM -4.0 °F -25.8 °F - N/A% 29.96 in 10.0 mi NE 17.3 mph 21.9 mph N/A   Clear